Regional Weather Roundup
Issued by NWS

Home | Current Version | Previous Version | Text Only | Print | Product List | Glossary Off
Versions: 1 2 3 4 5 6 7 8 9 10 11 12 13 14 15 16 17 18 19 20 21 22 23 24 25 26 27 28 29 30 31 32 33 34 35 36 37 38 39 40 41 42 43 44 45 46 47 48 49 50

000
ASUS43 KLMK 172310
RWRKY
KENTUCKY REGIONAL WEATHER ROUNDUP
NATIONAL WEATHER SERVICE LOUISVILLE KY
700 PM EDT THU APR 17 2014

NOTE "FAIR" INDICATES FEW OR NO CLOUDS BELOW 12,000 FEET
WITH NO SIGNIFICANT WEATHER AND/OR OBSTRUCTIONS TO VISIBILITY.

KYZ001>023-026-027-061>063-070>075-180000-
WESTERN AND SOUTH CENTRAL KENTUCKY

CITY           SKY/WX    TMP DP  RH WIND       PRES   REMARKS
PADUCAH        SUNNY     69  40  34 VRB6      30.22F
HENDERSON      MOSUNNY   66  39  37 SE8       30.24R
OWENSBORO      SUNNY     66  38  35 S9        30.26R
HOPKINSVILLE   SUNNY     66  36  32 E9        30.23F
BOWLING GREEN  SUNNY     66  29  24 S3        30.26F
GLASGOW        SUNNY     67  30  25 SW3       30.27F
$$

KYZ024-025-028>034-038-045-046-053-180000-
NORTH CENTRAL KENTUCKY

CITY           SKY/WX    TMP DP  RH WIND       PRES   REMARKS
LOUISVILLE/SDF PTSUNNY   68  32  26 S8        30.25F
LOUISVILLE/LOU SUNNY     69  32  25 S7        30.27R
FORT KNOX      SUNNY     66  33  29 S13       30.26S
$$

KYZ035>037-039>044-047>052-055>060-089>105-180000-
NORTHEAST KENTUCKY

CITY           SKY/WX    TMP DP  RH WIND       PRES   REMARKS
LEXINGTON      SUNNY     66  33  29 SW3       30.28R
COVINGTON      MOSUNNY   65  34  31 S8        30.26S
FRANKFORT      SUNNY     65  36  34 S6        30.27R
$$

KYZ054-064>069-076>088-106>120-180000-
SOUTHEAST KENTUCKY

CITY           SKY/WX    TMP DP  RH WIND       PRES   REMARKS
JACKSON        SUNNY     69  18  14 CALM      30.27S
LONDON         SUNNY     69  24  18 S8        30.28R
SOMERSET       SUNNY     68  23  18 SE6       30.27S
MIDDLESBORO    SUNNY     68  22  17 S3        30.28S
MONTICELLO     CLEAR    N/A N/A N/A S3        30.28R
$$




USA.gov is the U.S. government's official web portal to all federal, state and local government web resources and services.